EW2692 Weather Reports


Display with metric or nautical units.
time (UTC)temp
F
wind
direction
speed
MPH
gust
MPH
rain 1hr
in
rain 24hr
in
rain mn
in
humidity
%
barometer
mb
20240621150013 59 98 0.0 4.0 0.02 0.05 0.05 97 946.8
20240621144512 59 101 0.0 6.0 0.01 0.04 0.04 97 946.9
20240621143012 59 87 1.0 6.0 0.01 0.04 0.04 97 946.8
20240621141510 59 82 0.0 7.0 0.00 0.03 0.03 97 946.9
20240621140012 59 105 0.0 6.0 0.00 0.03 0.03 97 946.9
20240621134509 59 82 0.0 8.0 0.00 0.03 0.03 97 947.0
20240621133008 59 128 0.0 5.0 0.00 0.03 0.03 97 947.0
20240621131509 59 101 0.0 4.0 0.01 0.03 0.03 97 947.0
20240621130015 58 56 0.0 1.0 0.01 0.03 0.03 97 947.1
20240621124502 58 56 0.0 3.0 0.02 0.03 0.03 96 947.3
20240621123001 58 74 0.0 0.0 0.03 0.03 0.03 96 947.5
20240621121602 58 86 0.0 0.0 0.02 0.02 0.02 96 947.7
20240621120059 58 87 0.0 1.0 0.02 0.02 0.02 96 947.7
20240621114558 57 86 0.0 2.0 0.01 0.01 0.01 95 947.6
20240621113101 57 90 0.0 1.0 0.00 0.00 0.00 95 947.7
20240621111558 56 90 0.0 1.0 0.00 0.00 0.00 95 947.6
20240621110056 56 55 0.0 1.0 0.00 0.00 0.00 95 947.5
20240621104555 56 308 0.0 1.0 0.00 0.00 0.00 95 947.6
20240621103054 56 302 0.0 0.0 0.00 0.00 0.00 94 947.6
20240621101615 56 71 0.0 0.0 0.00 0.00 0.00 93 947.8
20240621100049 56 72 0.0 1.0 0.00 0.00 0.00 93 947.8
20240621094556 56 73 0.0 2.0 0.00 0.00 0.00 93 948.0
20240621093046 56 77 0.0 0.0 0.00 0.00 0.00 93 948.2
20240621091549 56 77 0.0 1.0 0.00 0.00 0.00 92 948.2
20240621090052 57 78 0.0 1.0 0.00 0.00 0.00 91 948.4
20240621084541 57 81 0.0 0.0 0.00 0.00 0.00 90 948.4
20240621083039 58 81 0.0 0.0 0.00 0.00 0.00 90 948.4
20240621081545 58 81 0.0 0.0 0.00 0.00 0.00 90 948.4
20240621080043 59 80 0.0 1.0 0.00 0.00 0.00 89 948.3
20240621074535 59 84 0.0 0.0 0.00 0.00 0.00 88 948.3
20240621073033 59 84 0.0 1.0 0.00 0.00 0.00 88 948.2
20240621071537 59 123 0.0 2.0 0.00 0.00 0.00 89 948.2
20240621070032 59 124 0.0 0.0 0.00 0.00 0.00 89 948.2
20240621064534 60 124 0.0 4.0 0.00 0.00 0.00 88 948.3
20240621063028 60 152 0.0 1.0 0.00 0.00 0.00 87 948.1
20240621061526 60 157 0.0 2.0 0.00 0.00 0.00 87 948.3
20240621060024 60 141 0.0 2.0 0.00 0.00 0.00 86 948.4
20240621054523 60 152 0.0 4.0 0.00 0.01 0.00 86 948.4
20240621053023 60 127 0.0 2.0 0.00 0.01 0.00 87 948.5
20240621051522 61 122 0.0 1.0 0.00 0.01 0.00 85 948.5
20240621050035 62 126 0.0 1.0 0.00 0.01 0.00 82 948.4
20240621044521 63 125 0.0 4.0 0.00 0.13 0.00 80 948.1
20240621043021 64 121 0.0 6.0 0.00 0.13 0.00 78 948.0
20240621041520 64 119 0.0 7.0 0.00 0.13 0.00 78 947.8
20240621040020 64 109 0.0 4.0 0.00 0.13 0.00 77 948.1
20240621034527 64 102 0.0 2.0 0.00 0.13 0.00 75 948.0
20240621033019 65 127 0.0 5.0 0.00 0.13 0.00 72 947.9
20240621031529 65 107 0.0 4.0 0.00 0.13 0.00 72 947.8
20240621030018 66 120 0.0 3.0 0.00 0.13 0.00 71 948.0
20240621024517 67 117 0.0 1.0 0.00 0.13 0.00 71 947.7
20240621023017 68 110 0.0 0.0 0.00 0.13 0.00 69 947.5
20240621021520 69 121 0.0 0.0 0.00 0.13 0.00 68 947.6
20240621020022 70 122 0.0 0.0 0.00 0.13 0.00 66 947.4
20240621014515 71 135 0.0 0.0 0.00 0.13 0.00 64 947.4
20240621013014 72 61 0.0 0.0 0.00 0.13 0.00 61 947.3
20240621011517 73 61 0.0 0.0 0.00 0.13 0.00 58 947.4
20240621010016 75 57 0.0 6.0 0.00 0.13 0.00 54 947.3
20240621004512 76 103 0.0 4.0 0.00 0.13 0.00 51 947.2
20240621003013 77 59 0.0 3.0 0.00 0.13 0.00 51 947.2
20240621001510 77 106 0.0 3.0 0.00 0.13 0.00 50 947.2
20240621000009 76 94 0.0 0.0 0.00 0.13 0.00 53 947.3
20240620234508 77 131 0.0 1.0 0.00 0.13 0.00 48 947.4
20240620233007 77 82 0.0 0.0 0.00 0.13 0.00 48 947.5
20240620231505 77 84 0.0 1.0 0.00 0.13 0.00 45 947.7
20240620230002 77 98 0.0 10.0 0.00 0.13 0.00 49 948.0
20240620224502 77 165 0.0 7.0 0.00 0.13 0.00 49 948.1
20240620223001 78 135 0.0 9.0 0.00 0.13 0.00 49 948.1
20240620221559 78 140 0.0 7.0 0.00 0.13 0.00 49 948.1
20240620220058 79 184 0.0 7.0 0.00 0.13 0.00 44 948.2
20240620214557 79 140 0.0 4.0 0.00 0.13 0.00 42 948.3
20240620213056 78 133 0.0 5.0 0.00 0.13 0.00 48 948.3
20240620211600 79 128 0.0 5.0 0.00 0.13 0.00 45 948.4
20240620210054 78 65 0.0 4.0 0.00 0.13 0.00 50 948.4
20240620204551 77 56 0.0 4.0 0.00 0.13 0.00 52 948.6
20240620203046 75 95 0.0 2.0 0.00 0.13 0.00 55 948.7
20240620201545 77 75 0.0 0.0 0.00 0.13 0.00 51 948.7
20240620200044 77 64 0.0 4.0 0.00 0.13 0.00 51 948.8
20240620194541 76 61 0.0 3.0 0.00 0.13 0.00 55 948.9
20240620193040 76 93 0.0 5.0 0.00 0.13 0.00 54 949.1
20240620191538 75 21 0.0 6.0 0.00 0.13 0.00 56 949.1
20240620190035 75 57 0.0 8.0 0.00 0.13 0.00 59 949.3
20240620184533 74 64 0.0 6.0 0.00 0.13 0.00 60 949.3
20240620183027 73 15 0.0 3.0 0.00 0.13 0.00 60 949.4
20240620181523 73 46 0.0 4.0 0.00 0.13 0.00 64 949.4
20240620180022 72 74 0.0 9.0 0.00 0.13 0.00 64 949.4
20240620174518 71 75 0.0 8.0 0.00 0.13 0.00 66 949.3
20240620173016 70 319 0.0 0.0 0.00 0.13 0.00 69 949.4
20240620171514 70 313 0.0 1.0 0.00 0.13 0.00 67 949.5
20240620170018 69 347 0.0 0.0 0.00 0.13 0.00 70 949.5
20240620164518 68 341 0.0 0.0 0.00 0.13 0.00 70 949.6
20240620163017 68 327 0.0 0.0 0.00 0.13 0.00 71 949.6
20240620161507 68 360 0.0 0.0 0.00 0.13 0.00 68 949.6
20240620160002 66 313 0.0 0.0 0.00 0.13 0.00 70 949.7
20240620154502 66 309 0.0 0.0 0.00 0.13 0.00 68 949.8
20240620153001 66 63 0.0 0.0 0.00 0.13 0.00 70 949.7
20240620151558 66 64 0.0 0.0 0.00 0.13 0.00 71 949.7